timestamp,wind_dir_avg,wind_spd_avg,wind_spd_max_dir,wind_spd_gust,battery_voltage,lat,long
2020-11-27 00:04:01+00:00,24.0,2.61,22.0,2.93,12.57,47.59359,-54.27349
2020-11-27 00:14:01+00:00,25.0,2.97,33.0,3.45,12.49,47.59359,-54.27349
2020-11-27 00:24:01+00:00,44.0,2.63,45.0,2.93,12.49,47.59359,-54.27349
2020-11-27 00:34:01+00:00,76.0,1.91,74.0,2.76,12.49,47.59359,-54.27349
2020-11-27 00:44:01+00:00,75.0,3.91,70.0,4.52,12.49,47.59359,-54.27349
2020-11-27 00:54:01+00:00,76.0,2.92,66.0,3.82,12.49,47.59359,-54.27349
2020-11-27 01:04:01+00:00,76.0,3.73,77.0,4.48,12.49,47.59359,-54.27349
2020-11-27 01:14:01+00:00,95.0,2.05,122.0,3.53,12.57,47.59359,-54.27349
2020-11-27 01:24:01+00:00,87.0,2.91,87.0,4.07,12.57,47.59359,-54.27349
2020-11-27 01:34:01+00:00,73.0,3.7,74.0,4.87,12.57,47.59359,-54.27349
2020-11-27 01:44:01+00:00,70.0,3.44,68.0,4.48,12.57,47.59359,-54.27349
2020-11-27 01:54:01+00:00,67.0,3.04,73.0,3.67,12.57,47.59359,-54.27349
2020-11-27 02:04:01+00:00,78.0,2.97,66.0,3.97,12.57,47.59359,-54.27349
2020-11-27 02:14:01+00:00,73.0,3.63,75.0,4.56,12.49,47.59359,-54.27349
2020-11-27 02:24:01+00:00,76.0,2.71,69.0,3.15,12.49,47.59359,-54.27349
2020-11-27 02:34:01+00:00,67.0,3.04,66.0,3.59,12.49,47.59359,-54.27349
2020-11-27 02:44:01+00:00,59.0,2.05,64.0,2.74,12.49,47.59359,-54.27349
2020-11-27 02:54:01+00:00,76.0,2.24,74.0,2.75,12.49,47.59359,-54.27349
2020-11-27 03:04:01+00:00,73.0,2.77,74.0,3.29,12.49,47.59359,-54.27349
2020-11-27 03:14:01+00:00,74.0,1.96,83.0,2.5,12.49,47.59359,-54.27349
2020-11-27 03:24:01+00:00,73.0,1.67,74.0,2.15,12.49,47.59359,-54.27349
2020-11-27 03:34:01+00:00,99.0,1.57,110.0,2.07,12.49,47.59359,-54.27349
2020-11-27 03:44:01+00:00,101.0,1.6,111.0,2.77,12.49,47.59359,-54.27349
2020-11-27 03:54:01+00:00,87.0,1.23,73.0,1.68,12.49,47.59359,-54.27349
2020-11-27 04:04:01+00:00,105.0,1.34,85.0,2.44,12.49,47.59359,-54.27349
2020-11-27 04:14:01+00:00,97.0,1.47,119.0,2.46,12.17,47.59359,-54.27349
2020-11-27 04:24:01+00:00,101.0,1.9,110.0,3.25,12.17,47.59359,-54.27349
2020-11-27 04:34:01+00:00,117.0,1.98,124.0,2.73,12.17,47.59359,-54.27349
2020-11-27 04:44:01+00:00,115.0,2.43,108.0,3.84,12.17,47.59359,-54.27349
2020-11-27 04:54:01+00:00,132.0,2.44,138.0,3.06,12.17,47.59359,-54.27349
2020-11-27 05:04:01+00:00,119.0,1.44,144.0,2.74,12.17,47.59359,-54.27349
2020-11-27 05:14:01+00:00,113.0,1.65,98.0,2.89,12.41,47.59359,-54.27349
2020-11-27 05:24:01+00:00,90.0,1.39,81.0,2.6,12.41,47.59359,-54.27349
2020-11-27 05:34:01+00:00,95.0,1.66,110.0,2.7,12.41,47.59359,-54.27349
2020-11-27 05:44:01+00:00,92.0,1.08,103.0,1.76,12.41,47.59359,-54.27349
2020-11-27 05:54:01+00:00,93.0,1.48,114.0,2.29,12.41,47.59359,-54.27349
2020-11-27 06:04:01+00:00,89.0,1.68,99.0,2.47,12.41,47.59359,-54.27349
2020-11-27 06:14:01+00:00,99.0,1.9,90.0,2.8,12.41,47.59359,-54.27349
2020-11-27 06:24:01+00:00,96.0,2.05,91.0,3.24,12.41,47.59359,-54.27349
2020-11-27 06:34:01+00:00,83.0,1.49,92.0,2.0,12.41,47.59359,-54.27349
2020-11-27 06:44:01+00:00,73.0,1.57,59.0,2.26,12.41,47.59359,-54.27349
2020-11-27 06:54:01+00:00,82.0,1.67,81.0,2.07,12.41,47.59359,-54.27349
2020-11-27 07:04:01+00:00,66.0,1.98,71.0,2.26,12.41,47.59359,-54.27349
2020-11-27 07:14:01+00:00,69.0,1.67,73.0,2.23,12.09,47.59359,-54.27349
2020-11-27 07:24:01+00:00,84.0,1.64,89.0,2.03,12.09,47.59359,-54.27349
2020-11-27 07:34:01+00:00,83.0,1.33,102.0,2.12,12.09,47.59359,-54.27349
2020-11-27 07:44:01+00:00,73.0,1.38,76.0,1.74,12.09,47.59359,-54.27349
2020-11-27 07:54:01+00:00,66.0,1.11,63.0,1.35,12.09,47.59359,-54.27349
2020-11-27 08:04:01+00:00,77.0,1.29,79.0,1.48,12.09,47.59359,-54.27349
2020-11-27 08:14:01+00:00,71.0,1.58,71.0,1.75,12.41,47.59359,-54.27349
2020-11-27 08:24:01+00:00,46.0,1.43,45.0,1.68,12.41,47.59359,-54.27349
2020-11-27 08:34:01+00:00,72.0,1.48,78.0,1.75,12.41,47.59359,-54.27349
2020-11-27 08:44:01+00:00,76.0,1.29,69.0,1.48,12.41,47.59359,-54.27349
2020-11-27 08:54:01+00:00,71.0,1.54,70.0,1.85,12.41,47.59359,-54.27349
2020-11-27 09:04:01+00:00,69.0,1.14,67.0,1.45,12.41,47.59359,-54.27349
2020-11-27 09:14:01+00:00,69.0,1.24,69.0,1.48,12.25,47.59359,-54.27349
2020-11-27 09:24:01+00:00,68.0,1.04,67.0,1.2,12.25,47.59359,-54.27349
2020-11-27 09:34:01+00:00,61.0,0.98,50.0,1.31,12.25,47.59359,-54.27349
2020-11-27 09:44:01+00:00,69.0,0.76,75.0,0.9,12.25,47.59359,-54.27349
2020-11-27 09:54:01+00:00,107.0,0.69,107.0,0.97,12.25,47.59359,-54.27349
2020-11-27 10:04:01+00:00,115.0,0.93,122.0,1.22,12.25,47.59359,-54.27349
2020-11-27 10:14:01+00:00,89.0,0.62,104.0,0.81,12.33,47.59359,-54.27349
2020-11-27 10:24:01+00:00,210.0,0.25,221.0,0.39,12.33,47.59359,-54.27349
2020-11-27 10:34:01+00:00,240.0,0.38,241.0,0.51,12.33,47.59359,-54.27349
2020-11-27 10:44:01+00:00,357.0,1.64,349.0,1.86,12.33,47.59359,-54.27349
2020-11-27 10:54:01+00:00,30.0,1.51,29.0,1.75,12.33,47.59359,-54.27349
2020-11-27 11:04:01+00:00,5.0,0.45,13.0,0.61,12.33,47.59359,-54.27349
2020-11-27 11:14:01+00:00,351.0,1.11,355.0,1.55,12.33,47.59359,-54.27349
2020-11-27 11:24:01+00:00,19.0,1.86,14.0,2.16,12.33,47.59359,-54.27349
2020-11-27 11:34:01+00:00,18.0,1.68,17.0,2.09,12.33,47.59359,-54.27349
2020-11-27 11:44:01+00:00,15.0,1.83,15.0,2.26,12.33,47.59359,-54.27349
2020-11-27 11:54:01+00:00,113.0,0.32,114.0,0.5,12.33,47.59359,-54.27349
2020-11-27 12:04:01+00:00,233.0,0.79,225.0,1.69,12.33,47.59359,-54.27349
2020-11-27 12:14:01+00:00,277.0,0.78,271.0,1.1,12.41,47.59359,-54.27349
2020-11-27 12:24:01+00:00,232.0,3.57,234.0,5.29,12.41,47.59359,-54.27349
2020-11-27 12:34:01+00:00,227.0,6.37,226.0,7.56,12.41,47.59359,-54.27349
2020-11-27 12:44:01+00:00,218.0,6.61,220.0,7.57,12.41,47.59359,-54.27349
2020-11-27 12:54:01+00:00,220.0,7.16,224.0,8.13,12.41,47.59359,-54.27349
2020-11-27 13:04:01+00:00,226.0,7.63,223.0,8.79,12.41,47.59359,-54.27349
2020-11-27 13:14:01+00:00,207.0,6.06,223.0,9.09,12.41,47.59359,-54.27349
2020-11-27 13:24:01+00:00,220.0,7.64,221.0,8.69,12.41,47.59359,-54.27349
2020-11-27 13:34:01+00:00,219.0,7.95,215.0,9.07,12.41,47.59359,-54.27349
2020-11-27 13:44:01+00:00,218.0,7.39,221.0,8.18,12.41,47.59359,-54.27349
2020-11-27 13:54:01+00:00,216.0,7.53,213.0,8.73,12.41,47.59359,-54.27349
2020-11-27 14:04:01+00:00,218.0,7.81,217.0,8.92,12.41,47.59359,-54.27349
2020-11-27 14:14:01+00:00,215.0,8.59,216.0,9.46,12.89,47.59359,-54.27349
2020-11-27 14:24:01+00:00,213.0,8.6,220.0,9.89,12.89,47.59359,-54.27349
2020-11-27 14:34:01+00:00,211.0,9.98,211.0,11.5,12.89,47.59359,-54.27349
2020-11-27 14:44:01+00:00,210.0,9.26,212.0,10.37,12.89,47.59359,-54.27349
2020-11-27 14:54:01+00:00,214.0,7.51,213.0,8.56,12.89,47.59359,-54.27349
2020-11-27 15:04:01+00:00,210.0,7.29,207.0,8.94,12.89,47.59359,-54.27349
2020-11-27 15:14:01+00:00,203.0,7.72,202.0,9.78,12.65,47.59359,-54.27349
2020-11-27 15:24:01+00:00,209.0,7.5,209.0,8.31,12.65,47.59359,-54.27349
2020-11-27 15:34:01+00:00,211.0,6.76,212.0,7.87,12.65,47.59359,-54.27349
2020-11-27 15:44:01+00:00,209.0,7.5,213.0,8.61,12.65,47.59359,-54.27349
2020-11-27 15:54:01+00:00,208.0,8.5,199.0,10.14,12.65,47.59359,-54.27349
2020-11-27 16:04:01+00:00,206.0,10.29,207.0,11.81,12.65,47.59359,-54.27349
2020-11-27 16:14:01+00:00,208.0,10.26,211.0,11.84,13.05,47.59359,-54.27349
2020-11-27 16:24:01+00:00,211.0,10.14,210.0,12.18,13.05,47.59359,-54.27349
2020-11-27 16:34:01+00:00,207.0,9.92,210.0,11.29,13.05,47.59359,-54.27349
2020-11-27 16:44:01+00:00,206.0,9.67,206.0,10.9,13.05,47.59359,-54.27349
2020-11-27 16:54:01+00:00,203.0,9.36,201.0,10.37,13.05,47.59359,-54.27349
2020-11-27 17:04:01+00:00,199.0,9.15,203.0,10.69,13.05,47.59359,-54.27349
2020-11-27 17:14:01+00:00,205.0,9.87,204.0,11.11,12.97,47.59359,-54.27349
2020-11-27 17:24:01+00:00,208.0,9.48,203.0,11.22,12.97,47.59359,-54.27349
2020-11-27 17:34:01+00:00,205.0,9.37,204.0,10.51,12.97,47.59359,-54.27349
2020-11-27 17:44:01+00:00,203.0,10.48,207.0,11.98,12.97,47.59359,-54.27349
2020-11-27 17:54:01+00:00,210.0,11.19,209.0,12.63,12.97,47.59359,-54.27349
2020-11-27 18:04:01+00:00,209.0,11.19,212.0,12.74,12.97,47.59359,-54.27349
2020-11-27 18:14:01+00:00,214.0,11.23,215.0,12.96,12.81,47.59359,-54.27349
2020-11-27 18:24:01+00:00,214.0,11.25,219.0,12.62,12.81,47.59359,-54.27349
2020-11-27 18:34:01+00:00,211.0,10.69,213.0,12.77,12.81,47.59359,-54.27349
2020-11-27 18:44:01+00:00,211.0,11.64,216.0,13.58,12.81,47.59359,-54.27349
2020-11-27 18:54:01+00:00,211.0,10.38,211.0,12.18,12.81,47.59359,-54.27349
2020-11-27 19:04:01+00:00,206.0,10.54,208.0,11.87,12.81,47.59359,-54.27349
2020-11-27 19:14:01+00:00,209.0,11.26,215.0,12.85,12.81,47.59359,-54.27349
2020-11-27 19:24:01+00:00,213.0,10.52,216.0,11.91,12.81,47.59359,-54.27349
2020-11-27 19:34:01+00:00,213.0,10.36,218.0,11.86,12.81,47.59359,-54.27349
2020-11-27 19:44:01+00:00,211.0,10.21,207.0,12.01,12.81,47.59359,-54.27349
2020-11-27 19:54:01+00:00,211.0,10.2,212.0,11.97,12.81,47.59359,-54.27349
2020-11-27 20:04:01+00:00,209.0,11.67,206.0,13.5,12.81,47.59359,-54.27349
2020-11-27 20:14:01+00:00,211.0,10.36,210.0,11.88,12.57,47.59359,-54.27349
2020-11-27 20:24:01+00:00,211.0,10.76,210.0,12.04,12.57,47.59359,-54.27349
2020-11-27 20:34:01+00:00,215.0,10.77,208.0,12.48,12.57,47.59359,-54.27349
2020-11-27 20:44:01+00:00,219.0,8.97,220.0,10.33,12.57,47.59359,-54.27349
2020-11-27 20:54:01+00:00,221.0,10.08,219.0,11.95,12.57,47.59359,-54.27349
2020-11-27 21:04:01+00:00,223.0,10.9,231.0,12.67,12.57,47.59359,-54.27349
2020-11-27 21:14:01+00:00,223.0,11.02,226.0,12.33,12.49,47.59359,-54.27349
2020-11-27 21:24:01+00:00,222.0,10.86,230.0,12.8,12.49,47.59359,-54.27349
2020-11-27 21:34:01+00:00,225.0,10.74,222.0,11.82,12.49,47.59359,-54.27349
2020-11-27 21:44:01+00:00,221.0,10.89,221.0,12.3,12.49,47.59359,-54.27349
2020-11-27 21:54:01+00:00,229.0,11.03,219.0,13.15,12.49,47.59359,-54.27349
2020-11-27 22:04:01+00:00,225.0,12.25,223.0,14.01,12.49,47.59359,-54.27349
2020-11-27 22:14:01+00:00,229.0,13.08,220.0,15.31,12.41,47.59359,-54.27349
2020-11-27 22:24:01+00:00,227.0,11.45,229.0,14.14,12.41,47.59359,-54.27349
2020-11-27 22:34:01+00:00,220.0,11.78,227.0,13.4,12.41,47.59359,-54.27349
2020-11-27 22:44:01+00:00,229.0,10.89,229.0,12.1,12.41,47.59359,-54.27349
2020-11-27 22:54:01+00:00,227.0,10.41,227.0,13.21,12.41,47.59359,-54.27349
2020-11-27 23:04:01+00:00,226.0,10.42,223.0,12.44,12.41,47.59359,-54.27349
2020-11-27 23:14:01+00:00,234.0,10.01,225.0,12.74,12.41,47.59359,-54.27349
2020-11-27 23:24:01+00:00,237.0,9.49,234.0,10.8,12.41,47.59359,-54.27349
2020-11-27 23:34:01+00:00,234.0,8.03,234.0,9.39,12.41,47.59359,-54.27349
2020-11-27 23:44:01+00:00,229.0,9.26,230.0,11.01,12.41,47.59359,-54.27349
2020-11-27 23:54:01+00:00,229.0,8.28,229.0,9.51,12.41,47.59359,-54.27349
